Weather History for Dublin, GA

Change the Weather History Date:

Thursday, October 13, 2011

  Actual Average Record
Temperature  
Mean Temperature 68 °F -  
Max Temperature 78 °F 80 °F 90 °F (1954)
Min Temperature 59 °F 51 °F 38 °F (1976)
Cooling Degree Days 4    
Growing Degree Days 18 (Base 50)    
Moisture  
Dew Point 60 °F    
Average Humidity 77    
Maximum Humidity 100    
Minimum Humidity 51    
Precipitation  
Precipitation 0.00 in - - ()
Sea Level Pressure  
Sea Level Pressure 29.73 in    
Wind  
Wind Speed 9 mph (WSW)    
Max Wind Speed 17 mph    
Max Gust Speed 26 mph    
Visibility 10 miles    
Events Rain , Thunderstorm    
Averages and records for this station are not official NWS values.
T = Trace of Precipitation, MM = Missing Value Source: NWS Daily Summary

Daily Weather History Graph

Daily Weather History Graph

Search for Another Location

Airport:

Trip Planner

Search our weather history database for the weather conditions in past years. The results will help you decide how hot, cold, wet, or windy it might be!

Date:

Astronomy

Oct. 13, 2011 Rise Set
Actual Time 7:34 AM EDT 7:01 PM EDT
Civil Twilight 7:09 AM EDT 7:26 PM EDT
Nautical Twilight 6:40 AM EDT 7:54 PM EDT
Astronomical Twilight 6:12 AM EDT 8:23 PM EDT
Moon 7:46 PM EDT (10/13) 8:56 AM EDT (10/13)
Length of Visible Light 12h 17m
Length of Day
11h 27m
Full, 98% of the Moon is Illuminated
Oct 13
Full
Oct 19
Last Quarter
Oct 26
New
Nov 2
First Quarter
Nov 10
Full

Hourly Weather History & Observations

Time (EDT) Temp. Dew Point Humidity Pressure Visibility Wind Dir Wind Speed Gust Speed Precip Events Conditions
11:55 AM 73.4 °F 64.4 °F 73% 29.79 in - West 11.5 mph - N/A   Unknown
12:15 PM 73.4 °F 64.4 °F 73% 29.78 in 10.0 mi WSW 10.4 mph - N/A   Unknown
12:35 PM 73.4 °F 62.6 °F 69% 29.78 in 10.0 mi West 13.8 mph 19.6 mph N/A   Overcast
12:55 PM 75.2 °F 62.6 °F 65% 29.77 in 10.0 mi West 11.5 mph 18.4 mph N/A   Mostly Cloudy
1:15 PM 77.0 °F 62.6 °F 61% 29.76 in 10.0 mi WSW 11.5 mph 20.7 mph N/A   Mostly Cloudy
1:35 PM 75.2 °F 60.8 °F 61% 29.75 in 10.0 mi West 12.7 mph 16.1 mph N/A   Scattered Clouds
1:55 PM 77.0 °F 60.8 °F 57% 29.73 in 10.0 mi West 10.4 mph 17.3 mph N/A   Scattered Clouds
2:15 PM 77.0 °F 60.8 °F 57% 29.72 in 10.0 mi West 10.4 mph - N/A   Scattered Clouds
2:35 PM 78.8 °F 59.0 °F 51% 29.71 in 10.0 mi SW 13.8 mph 20.7 mph N/A   Mostly Cloudy
3:15 PM 78.8 °F 59.0 °F 51% 29.69 in 10.0 mi WSW 9.2 mph 17.3 mph N/A   Scattered Clouds
3:35 PM 78.8 °F 59.0 °F 51% 29.68 in 10.0 mi WSW 11.5 mph 17.3 mph N/A   Mostly Cloudy
4:15 PM 78.8 °F 59.0 °F 51% 29.67 in 10.0 mi SW 10.4 mph 17.3 mph N/A   Scattered Clouds
4:35 PM 78.8 °F 59.0 °F 51% 29.66 in 10.0 mi SW 6.9 mph - N/A   Scattered Clouds
4:55 PM 77.0 °F 59.0 °F 54% 29.65 in 10.0 mi SW 5.8 mph - N/A   Mostly Cloudy
5:15 PM 73.4 °F 60.8 °F 65% 29.68 in 10.0 mi NW 17.3 mph 26.5 mph N/A Rain Rain
5:35 PM 62.6 °F 60.8 °F 94% 29.69 in 7.0 mi NNW 11.5 mph 20.7 mph N/A Rain , Thunderstorm Rain
5:55 PM 62.6 °F 60.8 °F 94% 29.71 in 3.0 mi NW 8.1 mph 18.4 mph N/A Rain Heavy Rain
6:15 PM 62.6 °F 59.0 °F 88% 29.75 in 5.0 mi West 10.4 mph 23.0 mph N/A Rain Rain
6:55 PM 60.8 °F 59.0 °F 94% 29.72 in 10.0 mi WSW 3.5 mph - N/A Rain Light Rain
7:15 PM 60.8 °F 59.0 °F 94% 29.72 in 10.0 mi SW 4.6 mph - N/A Rain Light Rain
7:35 PM 60.8 °F 59.0 °F 94% 29.70 in 10.0 mi WSW 3.5 mph - N/A Rain Light Rain
8:15 PM 60.8 °F 59.0 °F 94% 29.72 in 10.0 mi WSW 4.6 mph - N/A   Mostly Cloudy
8:35 PM 60.8 °F 59.0 °F 94% 29.72 in 10.0 mi WSW 3.5 mph - N/A   Scattered Clouds
8:55 PM 59.0 °F 59.0 °F 100% 29.73 in 10.0 mi West 4.6 mph - N/A   Clear
9:15 PM 59.0 °F 59.0 °F 100% 29.74 in 10.0 mi West 3.5 mph - N/A   Clear
9:35 PM 59.0 °F 59.0 °F 100% 29.75 in 10.0 mi West 4.6 mph - N/A   Clear
10:15 PM 59.0 °F 59.0 °F 100% 29.76 in 10.0 mi West 4.6 mph - N/A   Clear
10:35 PM 59.0 °F 59.0 °F 100% 29.76 in 10.0 mi WSW 3.5 mph - N/A   Clear
10:55 PM 59.0 °F 57.2 °F 94% 29.77 in 10.0 mi Calm Calm - N/A   Clear
11:35 PM 59.0 °F 57.2 °F 94% 29.77 in 10.0 mi West 3.5 mph - N/A   Clear